When you browse on this site, cookies collect data to enhance your experience and personalize the content and advertising you see.
Visit our Privacy Policy to learn more. By continuing to use the site, you agree to this use of cookies and data.
EN

Hourly Weather Godzianow

Today, 23 September, Wednesday

Time Temperature Precipitation Wind Pressure Humidity
00:00 +17°C° 0 mm 3 mps 745 mmHg 58%
01:00 +17°C° 0 mm 3 mps 745 mmHg 60%
02:00 +17°C° 0 mm 3 mps 744 mmHg 61%
03:00 +17°C° 0 mm 3 mps 744 mmHg 61%
04:00 +16°C° 0 mm 3 mps 744 mmHg 62%
05:00 +17°C° 0 mm 3 mps 744 mmHg 62%
06:00 +17°C° 0 mm 3 mps 743 mmHg 62%
07:00 +18°C° 0 mm 3 mps 743 mmHg 60%
08:00 +20°C° 0 mm 3 mps 743 mmHg 55%
09:00 +22°C° 0 mm 3 mps 743 mmHg 49%
10:00 +25°C° 0 mm 3 mps 743 mmHg 44%
11:00 +26°C° 0 mm 3 mps 743 mmHg 40%
12:00 +27°C° 0 mm 3 mps 742 mmHg 37%
13:00 +28°C° 0 mm 3 mps 742 mmHg 34%
14:00 +28°C° 0 mm 3 mps 742 mmHg 36%
15:00 +27°C° 0 mm 3 mps 741 mmHg 39%
16:00 +27°C° 0 mm 2 mps 741 mmHg 42%
17:00 +25°C° 0 mm 2 mps 741 mmHg 47%
18:00 +23°C° 0 mm 2 mps 741 mmHg 51%
19:00 +20°C° 0 mm 2 mps 741 mmHg 55%
20:00 +20°C° 0 mm 2 mps 741 mmHg 57%
21:00 +19°C° 0 mm 2 mps 741 mmHg 59%
22:00 +20°C° 0 mm 1 mps 741 mmHg 61%
23:00 +20°C° 0 mm 1 mps 741 mmHg 62%

Tomorrow, 24 September, Thursday

Time Temperature Precipitation Wind Pressure Humidity
00:00 +20°C° 0 mm 1 mps 741 mmHg 63%
01:00 +19°C° 0 mm 2 mps 741 mmHg 63%
02:00 +18°C° 0 mm 2 mps 741 mmHg 66%
03:00 +18°C° 0 mm 2 mps 740 mmHg 68%
04:00 +17°C° 0 mm 2 mps 740 mmHg 70%
05:00 +17°C° 0 mm 3 mps 740 mmHg 70%
06:00 +18°C° 0 mm 3 mps 740 mmHg 70%
07:00 +18°C° 0 mm 3 mps 741 mmHg 70%
08:00 +19°C° 0 mm 3 mps 741 mmHg 68%
09:00 +20°C° 0 mm 3 mps 741 mmHg 66%
10:00 +21°C° 0 mm 4 mps 741 mmHg 64%
11:00 +22°C° 0 mm 3 mps 741 mmHg 61%
12:00 +24°C° 0 mm 3 mps 741 mmHg 58%
13:00 +25°C° 0 mm 3 mps 741 mmHg 55%
14:00 +25°C° 0 mm 3 mps 741 mmHg 55%
15:00 +25°C° 0 mm 2 mps 741 mmHg 55%
16:00 +25°C° 0 mm 2 mps 741 mmHg 55%
17:00 +23°C° 0 mm 2 mps 741 mmHg 58%
18:00 +21°C° 0 mm 2 mps 741 mmHg 62%
19:00 +20°C° 0 mm 1 mps 741 mmHg 66%
20:00 +19°C° 0 mm 2 mps 741 mmHg 68%
21:00 +18°C° 0 mm 2 mps 741 mmHg 71%
22:00 +18°C° 0 mm 2 mps 741 mmHg 73%
23:00 +18°C° 0 mm 2 mps 741 mmHg 74%

Day after tomorrow, 25 September, Friday

Time Temperature Precipitation Wind Pressure Humidity
00:00 +17°C° 0 mm 2 mps 740 mmHg 76%
01:00 +17°C° 0 mm 2 mps 740 mmHg 78%
02:00 +17°C° 0 mm 2 mps 740 mmHg 80%
03:00 +16°C° 0 mm 2 mps 739 mmHg 82%
04:00 +16°C° 0 mm 2 mps 739 mmHg 84%
05:00 +16°C° 0 mm 3 mps 738 mmHg 82%
06:00 +17°C° 0 mm 3 mps 737 mmHg 81%
07:00 +17°C° 0 mm 4 mps 737 mmHg 80%
08:00 +19°C° 0 mm 4 mps 736 mmHg 74%
09:00 +20°C° 0 mm 5 mps 736 mmHg 69%
10:00 +22°C° 0 mm 6 mps 735 mmHg 64%
11:00 +22°C° 0.2 mm 6 mps 735 mmHg 60%
12:00 +23°C° 0.2 mm 7 mps 735 mmHg 56%
13:00 +24°C° 0.2 mm 7 mps 734 mmHg 53%
14:00 +22°C° 0.2 mm 6 mps 734 mmHg 61%
15:00 +20°C° 0.2 mm 5 mps 734 mmHg 69%
16:00 +19°C° 0.2 mm 5 mps 734 mmHg 77%
17:00 +18°C° 0.1 mm 4 mps 735 mmHg 80%
18:00 +17°C° 0.1 mm 4 mps 735 mmHg 83%
19:00 +15°C° 0.1 mm 4 mps 735 mmHg 86%
20:00 +14°C° 0 mm 3 mps 735 mmHg 87%
21:00 +13°C° 0 mm 3 mps 736 mmHg 89%
22:00 +14°C° 0 mm 2 mps 736 mmHg 91%
23:00 +14°C° 0 mm 2 mps 736 mmHg 91%

26 September, Saturday

Time Temperature Precipitation Wind Pressure Humidity
00:00 +14°C° 0 mm 2 mps 736 mmHg 91%
01:00 +13°C° 0 mm 2 mps 736 mmHg 91%
02:00 +12°C° 0.6 mm 3 mps 735 mmHg 91%
03:00 +12°C° 0.6 mm 3 mps 735 mmHg 92%
04:00 +12°C° 0.6 mm 4 mps 734 mmHg 92%
05:00 +12°C° 0.6 mm 4 mps 734 mmHg 92%
06:00 +12°C° 0.6 mm 4 mps 733 mmHg 92%
07:00 +12°C° 0.6 mm 4 mps 733 mmHg 92%
08:00 +14°C° 0.3 mm 4 mps 733 mmHg 91%
09:00 +15°C° 0.3 mm 4 mps 733 mmHg 90%
10:00 +17°C° 0.3 mm 3 mps 732 mmHg 88%
11:00 +17°C° 0.6 mm 4 mps 732 mmHg 88%
12:00 +17°C° 0.6 mm 4 mps 732 mmHg 87%
13:00 +18°C° 0.6 mm 4 mps 732 mmHg 87%
14:00 +17°C° 0.5 mm 4 mps 732 mmHg 88%
15:00 +15°C° 0.5 mm 4 mps 732 mmHg 89%
16:00 +15°C° 0.5 mm 4 mps 732 mmHg 89%
17:00 +13°C° 0.1 mm 4 mps 732 mmHg 90%
18:00 +12°C° 0.1 mm 5 mps 732 mmHg 92%
19:00 +10°C° 0.1 mm 5 mps 732 mmHg 93%
20:00 +10°C° 2.6 mm 5 mps 732 mmHg 94%
21:00 +10°C° 2.6 mm 5 mps 731 mmHg 95%
22:00 +10°C° 2.6 mm 5 mps 731 mmHg 97%
23:00 +12°C° 0.7 mm 4 mps 730 mmHg 96%

27 September, Sunday

Time Temperature Precipitation Wind Pressure Humidity
00:00 +13°C° 0.7 mm 4 mps 730 mmHg 96%
01:00 +13°C° 0.7 mm 4 mps 729 mmHg 95%
02:00 +13°C° 0.5 mm 4 mps 729 mmHg 94%
03:00 +12°C° 0.5 mm 5 mps 729 mmHg 93%
04:00 +12°C° 0.5 mm 5 mps 729 mmHg 92%
05:00 +10°C° 0 mm 6 mps 729 mmHg 90%
06:00 +10°C° 0 mm 6 mps 729 mmHg 89%
07:00 +9°C° 0 mm 6 mps 730 mmHg 87%
08:00 +9°C° 0 mm 6 mps 731 mmHg 85%
09:00 +9°C° 0 mm 7 mps 731 mmHg 84%
10:00 +9°C° 0 mm 7 mps 732 mmHg 82%
11:00 +7°C° 0 mm 8 mps 733 mmHg 82%
12:00 +7°C° 0 mm 8 mps 733 mmHg 81%
13:00 +6°C° 0 mm 8 mps 734 mmHg 80%
14:00 +6°C° 0 mm 8 mps 735 mmHg 80%
15:00 +6°C° 0 mm 7 mps 736 mmHg 80%
16:00 +6°C° 0 mm 7 mps 737 mmHg 79%
17:00 +7°C° 0 mm 6 mps 738 mmHg 79%
18:00 +5°C° 0 mm 6 mps 738 mmHg 79%
19:00 +5°C° 0 mm 6 mps 739 mmHg 80%
20:00 +6°C° 0 mm 5 mps 740 mmHg 81%
21:00 +5°C° 0 mm 4 mps 740 mmHg 82%
22:00 +5°C° 0 mm 3 mps 741 mmHg 83%
23:00 +5°C° 0 mm 4 mps 741 mmHg 83%

28 September, Monday

Time Temperature Precipitation Wind Pressure Humidity
00:00 +5°C° 0 mm 4 mps 741 mmHg 83%
01:00 +4°C° 0 mm 4 mps 741 mmHg 84%
02:00 +4°C° 0 mm 4 mps 741 mmHg 84%
03:00 +4°C° 0 mm 4 mps 741 mmHg 84%
04:00 +4°C° 0 mm 4 mps 742 mmHg 84%
05:00 +4°C° 0 mm 4 mps 742 mmHg 81%
06:00 +5°C° 0 mm 4 mps 742 mmHg 78%
07:00 +5°C° 0 mm 4 mps 742 mmHg 75%
08:00 +7°C° 0 mm 5 mps 742 mmHg 67%
09:00 +9°C° 0 mm 5 mps 742 mmHg 60%
10:00 +12°C° 0 mm 5 mps 742 mmHg 52%
11:00 +12°C° 0 mm 5 mps 742 mmHg 50%
12:00 +13°C° 0 mm 5 mps 742 mmHg 47%
13:00 +14°C° 0 mm 5 mps 742 mmHg 44%
14:00 +14°C° 0 mm 5 mps 742 mmHg 47%
15:00 +13°C° 0 mm 4 mps 742 mmHg 49%
16:00 +13°C° 0 mm 4 mps 742 mmHg 52%
17:00 +12°C° 0 mm 3 mps 742 mmHg 56%
18:00 +10°C° 0 mm 3 mps 742 mmHg 60%
19:00 +9°C° 0 mm 3 mps 742 mmHg 65%
20:00 +9°C° 0 mm 3 mps 742 mmHg 68%
21:00 +8°C° 0 mm 3 mps 742 mmHg 70%
22:00 +8°C° 0 mm 2 mps 742 mmHg 73%
23:00 +8°C° 0 mm 2 mps 742 mmHg 77%
Show more